Regional Weather Roundup
Issued by NWS

Home | Current Version | Previous Version | Graphics & Text | Print | Product List | Glossary Off
Versions: 1 2 3 4 5 6 7 8 9 10 11 12 13 14 15 16 17 18 19 20 21 22 23 24 25 26 27 28 29 30 31 32 33 34 35 36 37 38 39 40 41 42 43 44 45 46 47 48 49 50

765
ASUS43 KMKX 090600
RWRWI

WISCONSIN REGIONAL WEATHER ROUNDUP
NATIONAL WEATHER SERVICE MILWAUKEE/SULLIVAN WI
1200 AM CST FRI DEC 09 2016

NOTE: "FAIR" INDICATES FEW OR NO CLOUDS BELOW 12,000 FEET WITH NO
SIGNIFICANT WEATHER AND/OR OBSTRUCTIONS TO VISIBILITY.

WIZ001-002-006>008-014>016-023>028-090700-
NORTHWEST WISCONSIN

CITY           SKY/WX    TMP DP  RH WIND       PRES   REMARKS
SUPERIOR ARPT  PTCLDY    16   8  72 NW10      30.47S WCI   3
ASHLAND        CLEAR     16   9  74 NW8       30.43R WCI   5
6HR MIN TEMP:  16; 6HR MAX TEMP:  23; 6HR PCP: TRACE;

HAYWARD        CLOUDY    18   9  68 VRB5      30.41R WCI  11
6HR MIN TEMP:  18; 6HR MAX TEMP:  22; 6HR PCP: TRACE;

SIREN          CLEAR     13   9  83 W5        30.47R WCI   6
CUMBERLAND     CLEAR     16  10  79 NW10      30.43R WCI   3
RICE LAKE      CLEAR     17  11  79 W8        30.45S WCI   6
CHETEK         CLEAR     17  11  78 NW5       30.44R WCI  10
LADYSMITH      FLURRIES  20  14  76 NW9       30.41R WCI  10
EAU CLAIRE     CLOUDY    20  14  77 NW7       30.44R WCI  11
MENOMONIE      CLEAR     19  14  81 W12       30.46R WCI   6
NEW RICHMOND   FLURRIES  19  13  79 NW8       30.48R WCI   8
OSCEOLA        FLURRIES  19  13  79 W9        30.52R WCI   8
$$

WIZ003>005-009-010-017-018-090700-
NORTH CENTRAL WISCONSIN

CITY           SKY/WX    TMP DP  RH WIND       PRES   REMARKS
MANITOWISH WTR LGT SNOW  16  15  96 NW8       30.30R WCI   5
ARBOR VITAE    FLURRIES  19  13  78 NW8       30.30R WCI   9
WOODRUFF       FLURRIES  19  13  78 NW8       30.30R WCI   9
RHINELANDER    CLOUDY    19  13  77 W7        30.30R WCI  10
6HR MIN TEMP:  18; 6HR MAX TEMP:  22; 6HR PCP: TRACE;

EAGLE RIVER    FLURRIES  17  12  79 N5        30.28S WCI  10
LAND O LAKES   CLOUDY    16  12  82 NW6       30.30R WCI   8
PHILLIPS       CLOUDY    17  13  82 NW6       30.35R WCI   9
6HR MIN TEMP:  17; 6HR MAX TEMP:  21;

TOMAHAWK       CLOUDY    18  12  76 NW6       30.33R WCI  10
MEDFORD        CLOUDY    19  12  76 NW7       30.34S WCI   9
MERRILL        FLURRIES  19  14  81 W7        30.34S WCI  10
$$

WIZ029-030-035-036-043>047-090700-
CENTRAL WISCONSIN

CITY           SKY/WX    TMP DP  RH WIND       PRES   REMARKS
WAUSAU         CLEAR     16  12  84 W9        30.34R WCI   4
6HR MIN TEMP:  16; 6HR MAX TEMP:  23; 6HR PCP: TRACE;

MOSINEE        PTCLDY    19  14  79 W9        30.36S WCI   9
MARSHFIELD     CLEAR     17   9  70 NW8       30.36R WCI   7
6HR MIN TEMP:  17; 6HR MAX TEMP:  22; 6HR PCP: TRACE;

STEVENS POINT  MOCLDY    19  12  74 W7        30.37R WCI  10
WAUPACA        CLEAR     22  17  78 W6        30.38R WCI  15
WAUTOMA        MOCLDY    22  16  78 NW8       30.39S WCI  12
6HR MIN TEMP:  20; 6HR MAX TEMP:  23; 6HR PCP: TRACE;

WISC RAPIDS    CLEAR     19  13  77 NW6       30.40R WCI  11
6HR MIN TEMP:  19; 6HR MAX TEMP:  23; 6HR PCP: TRACE;

CAMP DOUGLAS   LGT SNOW  21  18  86 W12       30.41S WCI   9
$$

WIZ011>013-019>022-031-037>040-048>050-090700-
NORTHEAST WISCONSIN

CITY           SKY/WX    TMP DP  RH WIND       PRES   REMARKS
ANTIGO         PTCLDY    16  12  86 W7        30.30R WCI   6
SHAWANO        PTCLDY    23  15  73 W6        30.35R WCI  16
OCONTO         CLOUDY    22  17  78 W3        30.33R
STURGEON BAY   PTCLDY    24  16  71 NW12      30.31S WCI  13
6HR MIN TEMP:  24; 6HR MAX TEMP:  29; 6HR PCP:  0.09;

GREEN BAY      CLEAR     23  17  78 W9        30.35R WCI  13
6HR MIN TEMP:  23; 6HR MAX TEMP:  28;

MANITOWOC      NOT AVBL
APPLETON       CLEAR     21  12  68 W10       30.34R WCI  10
CLINTONVILLE   CLEAR     23  14  68 NW9       30.36R WCI  13
OSHKOSH        CLEAR     21  14  74 W8        30.36R WCI  11
6HR MIN TEMP:  21; 6HR MAX TEMP:  24;

$$

WIZ032>034-041-042-053>061-090700-
SOUTHWEST WISCONSIN

CITY           SKY/WX    TMP DP  RH WIND       PRES   REMARKS
LA CROSSE      CLOUDY    24  15  68 W10       30.47S WCI  14
6HR MIN TEMP:  24; 6HR MAX TEMP:  26; 6HR PCP: TRACE;

SPARTA         FLURRIES  22  18  83 W7        30.45R WCI  14
VIROQUA        CLOUDY    20  16  83 NW8       30.42R WCI  10
6HR MIN TEMP:  20; 6HR MAX TEMP:  22;

BOSCOBEL       CLOUDY    23  16  74 W8        30.48R WCI  14
6HR MIN TEMP:  23; 6HR MAX TEMP:  25; 6HR PCP: TRACE;

PRAIRIE DU CHI FLURRIES  21  13  71 W6G16     30.50R WCI  14
PLATTEVILLE    CLOUDY    21  17  85 W12       30.45R WCI   9
$$

WIZ056-057-062-063-064-067-068-090700-
SOUTH CENTRAL WISCONSIN

CITY           SKY/WX    TMP DP  RH WIND       PRES   REMARKS
REEDSBURG      FLURRIES  22  18  83 NW9       30.41S WCI  12
BARABOO/DELLS  CLOUDY    23  17  80 W7        30.40S WCI  14
LONE ROCK      NOT AVBL
MINERAL POINT  FLURRIES  23  19  86 W12       30.42R WCI  12
MADISON        CLOUDY    22  16  78 W9        30.40R WCI  12
6HR MIN TEMP:  20; 6HR MAX TEMP:  23; 6HR PCP: TRACE;

MIDDLETON      CLOUDY    23  19  81 W12       30.40S WCI  12
WATERTOWN      CLOUDY    21  18  86 W5        30.38S WCI  15
MONROE         MOCLDY    21  18  86 W15       30.40S WCI   8
JANESVILLE     CLOUDY    23  19  86 W7        30.41R WCI  15
$$

WIZ051-052-058>065-066-070>072-090700-
SOUTHEAST WISCONSIN

CITY           SKY/WX    TMP DP  RH WIND       PRES   REMARKS
MILWAUKEE      PTCLDY    24  15  68 NW10      30.37R WCI  14
6HR MIN TEMP:  24; 6HR MAX TEMP:  25;

WAUKESHA       CLOUDY    21  18  86 W13       30.37S WCI   9
MILWAUKEE/TIMM MOCLDY    23  16  74 NW15G23   30.37S WCI  10
RACINE         CLOUDY    24  15  68 W12       30.39R WCI  13
6HR MIN TEMP:  23; 6HR MAX TEMP:  24;

BURLINGTON     CLOUDY    26  22  84 W8G16     30.39R WCI  18
KENOSHA        CLOUDY    22  15  75 W10       30.38R WCI  11
6HR MIN TEMP:  22; 6HR MAX TEMP:  24;

FOND DU LAC    CLOUDY    22  13  68 W13       30.37R WCI  10
6HR MIN TEMP:  22; 6HR MAX TEMP:  25;

SHEBOYGAN      CLEAR     23  16  74 W10       30.35R WCI  12
6HR MIN TEMP:  23; 6HR MAX TEMP:  26;

WEST BEND      CLOUDY    23  18  80 NW14G21   30.35S WCI  11
JUNEAU         PTCLDY    21  15  78 CALM      30.39R
$$

LSZ147-162-090700-
LAKE SUPERIOR

STATION/POSITION TIME  TEMP    WIND        PRES    WAVE
                       AIR SEA DIR/SP/G            HT/PER
                 (UTC) (F)     (DEG/KT/KT) (MB)    (FT/S)
DEVILS ISLAND    0500   20     360/ 18/ 22 1031.1R
PORT WING        0530   21     340/ 16/ 22 1030.8R
SAXON HARBOR     0540   22     300/ 17/ 23 1029.1R
$$

LMZ867-665-643>646-090700-
LAKE MICHIGAN

STATION/POSITION TIME  TEMP    WIND        PRES    WAVE
                       AIR SEA DIR/SP/G            HT/PER
                 (UTC) (F)     (DEG/KT/KT) (MB)    (FT/S)
CHAMBERS ISLAND  0540   25     290/  8/ 17 1025.4R
NORTHPORT PIER   0542   27     300/ 19     1025.4R
SISTER BAY       0520   28     320/ 26/ 31   N/A
ALGOMA LAKESHORE 0351          320/ 11/ 17   N/A
KEWAUNEE LAKESHO 0530   26     310/  9/ 14 1026.0R
SHEBOYGAN LAKESH 0500   24     300/ 15/ 19 1027.9R
PORT WASHINGTON  0530   25     300/  9/ 14 1028.8R
MILWAUKEE LAKESH 0530   24     290/ 12/ 14   N/A
KENOSHA   LAKESH 0500   24     280/ 15/ 20 1028.1
$$

TC  - TEMPERATURE IN CELSIUS
VSB - VISIBILITY IN STATUTE MILES
WCI - WIND CHILL INDEX
HX  - HEAT INDEX





USA.gov is the U.S. government's official web portal to all federal, state and local government web resources and services.